Regional Weather Roundup
Issued by NWS

Home | Current Version | Previous Version | Text Only | Print | Product List | Glossary On
Versions: 1 2 3 4 5 6 7 8 9 10 11 12 13 14 15 16 17 18 19 20 21 22 23 24 25 26 27 28 29 30 31 32 33 34 35 36 37 38 39 40 41 42 43 44 45 46 47 48 49 50
000
ASUS44 KJAN 190110
RWRMS

MISSISSIPPI HOURLY WEATHER ROUNDUP
NATIONAL WEATHER SERVICE JACKSON MS
800 PM CDT SAT APR 18 2015

NOTE: "FAIR: INDICATES FEW OR NO CLOUDS BELOW 12,000 FEET WITH NO
SIGNIFICANT WEATHER AND/OR OBSTRUCTIONS TO VISIBILITY.

MSZ001>002-007>008-010>013-018>021-025>028-034>036-190200-
NORTHWEST MISSISSIPPI

CITY           SKY/WX    TMP DP  RH WIND       PRES   REMARKS
CLARKSDALE     CLOUDY    64  64 100 CALM      29.85S
CLEVELAND      CLOUDY    66  66 100 E6        29.83R
GREENWOOD      CLOUDY    66  63  90 E6        29.84R
GREENVILLE     RAIN      68  66  93 E9        29.81R FOG
OLIVE BRANCH   CLOUDY    64  64 100 S5        29.86S
OXFORD         FAIR      63  61  94 SE5       29.88R
TUNICA         LGT RAIN  66  63  88 SE9       29.85F
$$

MSZ003>006-009-014>017-022>024-029>033-037>039-190200-
NORTHEAST MISSISSIPPI

CITY           SKY/WX    TMP DP  RH WIND       PRES   REMARKS
COLUMBUS AFB   CLOUDY    67  63  88 SE6       29.87R
CORINTH        CLOUDY    68  64  88 SW3       29.86R
GOLDN TRIANGLE CLOUDY    66  61  82 SE7       29.86S
STARKVILLE     CLOUDY    64  63  94 SE3       29.87F
TUPELO         CLOUDY    68  63  84 S3        29.87R
$$

MSZ040-058-190200-
CENTRAL MISSISSIPPI

CITY           SKY/WX    TMP DP  RH WIND       PRES   REMARKS
JACKSON INTL   CLOUDY    68  67  96 E5        29.82F
JACKSON HAWKNS CLOUDY    68  66  93 E6        29.82F
MERIDIAN KEY   HVY RAIN  67  66  97 E8        29.87R FOG
MERIDIAN NAS   CLOUDY    67  64  90 SE7       29.88R
RAYMOND        FAIR      70  64  83 E7        29.80F
VICKSBURG      HVY RAIN  69  67  93 W7        29.82S FOG
$$

MSZ059>079-190200-
SOUTH MISSISSIPPI

CITY           SKY/WX    TMP DP  RH WIND       PRES   REMARKS
BROOKHAVEN       N/A     72  72 100 S6        29.83F
HATTIESBURG    CLOUDY    73  69  87 S8        29.86R
MCCOMB         CLOUDY    73  69  87 S9        29.83R
NATCHEZ        CLOUDY    70  66  88 W6        29.82R
PINE BELT      CLOUDY    72  66  83 S6        29.85S
$$

MSZ080>082-190200-
COASTAL MISSISSIPPI

CITY           SKY/WX    TMP DP  RH WIND       PRES   REMARKS
BAY ST LOUIS   CLOUDY    72  66  83 MISG      29.87R
BILOXI         LGT RAIN  73  72  97 SW12      29.87R
PASCAGOULA     LGT RAIN  73  71  93 S6        29.88R
GULFPORT       LGT RAIN  73  69  87 S7G17     29.87R
$$


USA.gov is the U.S. government's official web portal to all federal, state and local government web resources and services.